This demonstration page uses our WeatherBlox Daily Observations layout. Learn more.

Hourly Observations for May 10, 2016

Temp ( °F °C ) Dew Point ( °F °C ) Humidity (%) Winds ( mph kmh ) Pressure ( in mb ) Visibility ( mi km ) Precip ( " mm )
12:35 am 00:35 Cloudy 57 14 57 14 100 100 Calm 30.12 1020 10 16.0934 0 0
12:55 am 00:55 Mostly Cloudy 57 14 57 14 100 100 Calm 30.12 1020 10 16.0934 0 0
1:15 am 01:15 Partly Cloudy 59 15 57 14 94 94 Calm 30.12 1020 10 16.0934 0 0
1:35 am 01:35 Mostly Cloudy 59 15 57 14 94 94 Calm 30.12 1020 10 16.0934 0 0
1:55 am 01:55 Cloudy 59 15 57 14 94 94 Calm 30.12 1020 10 16.0934 0 0
2:15 am 02:15 Mostly Cloudy 59 15 55 13 88 88 Calm 30.12 1020 10 16.0934 0 0
2:35 am 02:35 Mostly Cloudy 55 13 55 13 100 100 Calm 30.12 1020 10 16.0934 0 0
2:55 am 02:55 Cloudy 57 14 57 14 100 100 Calm 30.15 1021 10 16.0934 0 0
3:15 am 03:15 Mostly Cloudy 57 14 57 14 100 100 WNW 3 6 30.15 1021 10 16.0934 0 0
3:35 am 03:35 Cloudy 55 13 55 13 100 100 Calm 30.15 1021 10 16.0934 0 0
3:55 am 03:55 Cloudy 57 14 55 13 94 94 NNE 7 11 30.15 1021 10 16.0934 0 0
4:15 am 04:15 Cloudy 59 15 55 13 88 88 NNE 5 7 30.15 1021 10 16.0934 0 0
4:35 am 04:35 Cloudy 59 15 55 13 88 88 NNE 5 7 30.15 1021 10 16.0934 0 0
4:55 am 04:55 Mostly Cloudy 59 15 54 12 82 82 Calm 30.15 1021 10 16.0934 0 0
5:15 am 05:15 Mostly Cloudy 57 14 54 12 88 88 NE 5 7 30.15 1021 10 16.0934 0 0
5:35 am 05:35 Cloudy 57 14 54 12 88 88 Calm 30.18 1022 10 16.0934 0 0
5:55 am 05:55 Cloudy 55 13 55 13 100 100 WNW 5 7 30.21 1023 10 16.0934 0 0
6:15 am 06:15 Cloudy 57 14 54 12 88 88 N 7 11 30.21 1023 10 16.0934 0 0
6:35 am 06:35 Mostly Cloudy 55 13 54 12 94 94 N 7 11 30.21 1023 10 16.0934 0 0
6:55 am 06:55 Mostly Cloudy 55 13 52 11 88 88 N 6 9 30.24 1024 10 16.0934 0 0
7:15 am 07:15 Cloudy with Light Rain 55 13 52 11 88 88 NNE 5 7 30.24 1024 10 16.0934 0 0
7:35 am 07:35 Cloudy 55 13 52 11 88 88 NE 7 11 30.24 1024 10 16.0934 0 0
7:55 am 07:55 Cloudy with Light Rain 55 13 52 11 88 88 NNE 7 11 30.27 1025 10 16.0934 0 0
8:15 am 08:15 Cloudy 55 13 50 10 82 82 NNE 7 11 30.27 1025 10 16.0934 0 0
8:35 am 08:35 Cloudy 55 13 50 10 82 82 N 6 9 30.27 1025 10 16.0934 0 0
8:55 am 08:55 Cloudy 55 13 52 11 88 88 N 6 9 30.27 1025 10 16.0934 0 0
9:15 am 09:15 Cloudy 55 13 50 10 82 82 NNE 6 9 30.27 1025 10 16.0934 0 0
9:35 am 09:35 Cloudy 55 13 50 10 82 82 NNE 7 11 30.27 1025 10 16.0934 0 0
9:55 am 09:55 Cloudy 55 13 52 11 88 88 NNE 7 11 30.27 1025 10 16.0934 0 0
10:15 am 10:15 Cloudy 55 13 52 11 88 88 NNE 7 11 30.27 1025 10 16.0934 0 0
10:35 am 10:35 Cloudy 57 14 52 11 82 82 NNE 6 9 30.27 1025 10 16.0934 0 0
10:55 am 10:55 Cloudy 59 15 52 11 77 77 NE 3 6 30.27 1025 10 16.0934 0 0
11:15 am 11:15 Cloudy 59 15 50 10 72 72 Calm 30.27 1025 10 16.0934 0 0
11:35 am 11:35 Cloudy 61 16 52 11 72 72 NE 7 11 30.27 1025 10 16.0934 0 0
11:55 am 11:55 Cloudy 59 15 52 11 77 77 NE 3 6 30.27 1025 10 16.0934 0 0
12:15 pm 12:15 Cloudy 59 15 52 11 77 77 NNE 6 9 30.27 1025 10 16.0934 0 0
12:35 pm 12:35 Cloudy 61 16 52 11 72 72 NE 6 9 30.27 1025 10 16.0934 0 0
12:55 pm 12:55 Cloudy 61 16 52 11 72 72 NNE 5 7 30.27 1025 10 16.0934 0 0
1:15 pm 13:15 Cloudy 61 16 54 12 77 77 NNE 5 7 30.24 1024 10 16.0934 0 0
1:35 pm 13:35 Cloudy 59 15 54 12 82 82 N 7 11 30.27 1025 10 16.0934 0 0
1:55 pm 13:55 Cloudy 61 16 54 12 77 77 NNE 7 11 30.24 1024 10 16.0934 0 0
2:15 pm 14:15 Cloudy 59 15 54 12 82 82 N 8 13 30.24 1024 10 16.0934 0 0
2:35 pm 14:35 Cloudy with Light Rain 59 15 54 12 82 82 N 7 11 30.24 1024 10 16.0934 0 0
2:55 pm 14:55 Cloudy 59 15 54 12 82 82 NNE 7 11 30.24 1024 10 16.0934 0 0
3:15 pm 15:15 Cloudy 59 15 54 12 82 82 NNE 6 9 30.24 1024 10 16.0934 0 0
3:35 pm 15:35 Cloudy 59 15 54 12 82 82 N 7 11 30.24 1024 10 16.0934 0 0
3:55 pm 15:55 Partly Cloudy 61 16 54 12 77 77 ENE 7 11 30.24 1024 10 16.0934 0 0
4:15 pm 16:15 Partly Cloudy 61 16 54 12 77 77 Calm 30.24 1024 10 16.0934 0 0
4:35 pm 16:35 Partly Cloudy 61 16 54 12 77 77 NE 3 6 30.21 1023 10 16.0934 0 0
4:55 pm 16:55 Mostly Cloudy 61 16 54 12 77 77 NE 3 6 30.21 1023 10 16.0934 0 0
5:15 pm 17:15 Partly Cloudy 63 17 54 12 73 73 ENE 6 9 30.21 1023 10 16.0934 0 0
5:35 pm 17:35 Partly Cloudy 63 17 54 12 73 73 Calm 30.21 1023 10 16.0934 0 0
5:55 pm 17:55 Partly Cloudy 63 17 54 12 73 73 NNE 6 9 30.21 1023 10 16.0934 0 0
6:15 pm 18:15 Sunny 63 17 54 12 73 73 ENE 3 6 30.21 1023 10 16.0934 0 0
6:35 pm 18:35 Partly Cloudy 63 17 54 12 73 73 NE 3 6 30.21 1023 10 16.0934 0 0
6:55 pm 18:55 Mostly Cloudy 63 17 54 12 73 73 ENE 3 6 30.21 1023 10 16.0934 0 0
7:15 pm 19:15 Cloudy 63 17 54 12 73 73 Calm 30.21 1023 10 16.0934 0 0
7:35 pm 19:35 Cloudy 63 17 54 12 73 73 ENE 3 6 30.21 1023 10 16.0934 0 0
7:55 pm 19:55 Cloudy 61 16 54 12 77 77 Calm 30.21 1023 10 16.0934 0 0
8:15 pm 20:15 Cloudy 61 16 54 12 77 77 ENE 5 7 30.21 1023 10 16.0934 0 0
8:35 pm 20:35 Cloudy 61 16 54 12 77 77 ENE 3 6 30.21 1023 10 16.0934 0 0
8:55 pm 20:55 Cloudy 61 16 54 12 77 77 Calm 30.21 1023 10 16.0934 0 0
9:15 pm 21:15 Cloudy 61 16 54 12 77 77 Calm 30.21 1023 10 16.0934 0 0
9:35 pm 21:35 Cloudy 59 15 54 12 82 82 Calm 30.21 1023 10 16.0934 0 0
9:55 pm 21:55 Cloudy with Thunderstorms 59 15 54 12 82 82 Calm 30.21 1023 10 16.0934 0 0
10:15 pm 22:15 Cloudy 59 15 54 12 82 82 ENE 6 9 30.21 1023 10 16.0934 0 0
10:35 pm 22:35 Cloudy 59 15 54 12 82 82 ENE 3 6 30.21 1023 10 16.0934 0 0
10:55 pm 22:55 Cloudy with Light Rain 59 15 54 12 82 82 Calm 30.21 1023 10 16.0934 0 0
11:15 pm 23:15 Cloudy with Light Rain 59 15 54 12 82 82 Calm 30.21 1023 10 16.0934 0 0
11:35 pm 23:35 Cloudy with Rain 57 14 54 12 88 88 NE 3 6 30.21 1023 7 11.26538 0 0
11:55 pm 23:55 Cloudy with Nearby Thunderstorms 55 13 55 13 100 100 Calm 30.18 1022 10 16.0934 0 0

Powered by AerisWeather